Flag for Canada Weather past 2 weeks in Surrey, British Columbia, Canada

Now
48 °F

Cool.


Feels Like: 46 °F
Forecast: 44 / 53 °F
Wind: 5 mph from East

Location: P. Meadows Coastal Station


UV Index: 0 (Low)

Visibility: N/A


Pressure: 29.69 "Hg

Humidity: 91%

Dew point: 46 °F

Location of SurreyLocation

Historic Weather in Surrey

°F

Surrey temperature yesterday

Maximum temperature yesterday: 55 °F (at 5:00 PM)
Minimum temperature yesterday: 44 °F (at 6:00 AM)
Average temperature yesterday: 48 °F

Past Weeks' High & Low Weather Summary

 TemperatureHumidityPressure
High68 °F (Apr 13, 4:00 PM)100% (Apr 14, 6:00 AM)30.34 "Hg (Apr 14, 6:00 AM)
Low35 °F (Apr 14, 6:00 AM)24% (Apr 13, 12:00 PM)29.58 "Hg (Apr 24, 6:00 AM)
Average49 °F74%30.02 "Hg
* Reported Apr 9 9:00 AM — Apr 24 9:00 AM, Surrey, Weather by CustomWeather, © 2014

Note: Actual official high and low records may vary slightly from our data, if they occured in-between our weather recording intervals... More about our weather records

Advertising

Historic Weather Conditions — Data for Previous 24 hours

 ConditionsComfort  
Time TempWeatherWind HumidityBarometerVisibility
9:00 AM
Apr 24
45 °FCool.5 mph88%29.66 "HgN/A
8:00 AM44 °FQuite cool.2 mph93%29.62 "HgN/A
7:00 AM44 °FQuite cool.5 mph94%29.59 "HgN/A
6:00 AM45 °FQuite cool.3 mph92%29.58 "HgN/A
5:00 AM45 °FCool.6 mph93%29.59 "HgN/A
4:00 AM45 °FQuite cool.6 mph94%29.59 "HgN/A
3:00 AM45 °FCool.5 mph93%29.60 "HgN/A
2:00 AM46 °FCool.9 mph89%29.60 "HgN/A
1:00 AM46 °FCool.8 mph92%29.63 "HgN/A
12:00 AM47 °FCool.6 mph88%29.66 "HgN/A
11:00 PM
Apr 23
47 °FCool.3 mph91%29.67 "HgN/A
10:00 PM48 °FCool.3 mph87%29.70 "HgN/A
9:00 PM49 °FCool.7 mph81%29.72 "HgN/A
8:00 PM50 °FCool.7 mph79%29.73 "HgN/A
7:00 PM52 °FCool.6 mph68%29.76 "HgN/A
6:00 PM53 °FCool.3 mph64%29.78 "HgN/A
5:00 PM55 °FCool.7 mph59%29.80 "HgN/A
4:00 PM51 °FCool.7 mph70%29.83 "HgN/A
3:00 PM51 °FCool.9 mph77%29.85 "HgN/A
2:00 PM49 °FCool.8 mph84%29.87 "HgN/A
1:00 PM48 °FCool.8 mph85%29.88 "HgN/A
12:00 PM49 °FCool.7 mph83%29.88 "HgN/A
11:00 AM47 °FCool.7 mph82%29.88 "HgN/A
10:00 AM47 °FCool.6 mph90%29.88 "HgN/A
Weather by CustomWeather, © 2014

See weather overview